Regional Weather Roundup
Issued by NWS

Home | Current Version | Previous Version | Text Only | Print | Product List | Glossary Off
Versions: 1 2 3 4 5 6 7 8 9 10 11 12 13 14 15 16 17 18 19 20 21 22 23 24 25 26 27 28 29 30 31 32 33 34 35 36 37 38 39 40 41 42 43 44 45 46 47 48 49 50

000
ASUS43 KMPX 242001
RWRMN
WEATHER ROUNDUP FOR MINNESOTA
NATIONAL WEATHER SERVICE TWIN CITIES/CHANHASSEN MN
200 PM CST SAT FEB 24 2018


NOTE: "FAIR" INDICATES FEW OR NO CLOUDS BELOW 12,000 FEET WITH NO
SIGNIFICANT WEATHER AND/OR OBSTRUCTIONS TO VISIBILITY. N/A MEANS
CURRENT SKY AND/OR WEATHER CONDITIONS ARE NOT AVAILABLE.

MNZ060>063-068>070-242100-
   Twin Cities Metro

CITY           SKY/WX    TMP DP  RH WIND       PRES   REMARKS
TWIN CITIES    LGT SNOW  27  22  81 NE9       29.86F WCI  18
ST PAUL        CLOUDY    29  21  72 SE8       29.90F WCI  21
CRYSTAL        CLOUDY    26  19  74 E7        29.87F WCI  18
BLAINE         CLOUDY    28  21  74 E8        29.89F WCI  20
LAKEVILLE      FAIR      23  23 100 NE8       29.84F FOG     WCI  14
EDEN PRAIRIE   LGT SNOW  27  19  72 NE12      29.83F WCI  17
SOUTH ST PAUL  FAIR      30  22  70 E6        29.85F WCI  24
LAKE ELMO      FAIR      27  27 100 E12G17    29.91F WCI  16
$$
MNZ001>005-007-008-013>017-022>024-027-028-242100-
   Northwest Minnesota

CITY           SKY/WX    TMP DP  RH WIND       PRES   REMARKS
BEMIDJI        FAIR      19   9  65 SE6       29.91F WCI  11
HALLOCK        FAIR      16  10  79 S20       29.88F WCI  -1
ROSEAU         FAIR      21  10  63 S16       29.90F WCI   7
WARROAD        FAIR      27   9  46 S6        29.89F WCI  20
THIEF RVR FALL FAIR      20   9  62 S13       29.90F WCI   7
CROOKSTON      FAIR      12   7  79 S12       29.91F WCI  -2
FOSSTON        FAIR      23   9  54 S7        29.89F WCI  15
DETROIT LAKES  FAIR      19  10  68 SE13      29.89F WCI   7
MOORHEAD       FAIR      12   7  79 S5        29.90F WCI   4
PARK RAPIDS    CLOUDY    20  10  65 E3        29.89F
MAHNOMEN       CLOUDY    23   9  54 SE8       29.87F WCI  14
$$
MNZ006-009>011-018-025>026-242100-
   North Central Minnesota

CITY           SKY/WX    TMP DP  RH WIND       PRES   REMARKS
BAUDETTE       FAIR      24   8  50 S12       29.90F WCI  13
FLAG ISLAND    FAIR      18  10  73 SE8       29.90F WCI   7
INTL FALLS     FAIR      28   8  43 S8        29.94F WCI  20
WASKISH        CLOUDY    25  10  54 SE5       29.92F WCI  19
LONGVILLE      FAIR      21   9  58 E3        29.93F
GRAND RAPIDS   CLOUDY    23  11  60 VRB6      29.94F WCI  16
CRANE LAKE     FAIR      28  12  50 S6        29.98F WCI  22
ORR            FAIR      27  10  50 S6        29.93F WCI  20
COOK             N/A     25  10  54 SE6       29.96F WCI  18
WALKER         CLOUDY    17   7  64 CALM      29.91F
$$
MNZ012-019>021-037-242100-
   Northeast Minnesota

CITY           SKY/WX    TMP DP  RH WIND       PRES   REMARKS
DULUTH         FAIR      26  14  60 SE8       29.94F WCI  18
ELY            FAIR      28  12  50 SE13      29.95F WCI  18
HIBBING        FAIR      22  10  60 E9        29.94F WCI  12
EVELETH        FAIR      25   9  50 SE5       29.97F WCI  19
DULUTH HARBOR  FAIR      25  18  74 E10       30.01F WCI  15
TWO HARBORS    FAIR      34  19  55 NE6       29.95F WCI  29
SILVER BAY       N/A     27  16  63 CALM      29.99F
GRAND MARAIS     N/A     25  16  68 W3        30.07F
G MARAIS ARPRT FAIR      19   9  63 S3        29.99F
$$
MNZ029>031-032-039>041-046>048-054>057-064-242100-
   West Central Minnesota

CITY           SKY/WX    TMP DP  RH WIND       PRES   REMARKS
FERGUS FALLS   FAIR      19  12  73 E5        29.87F WCI  13
WHEATON        SNOW      12   9  85 E8        29.87F VSB 1/2 WCI   1
MORRIS         LGT SNOW  18  18 100 NE6       29.82F VSB 3/4 WCI   9
ALEXANDRIA     HVY SNOW  21  18  88 E8        29.85F VSB 1/4 WCI  11
ELBOW LAKE     LGT SNOW  20  14  77 NE8       29.85F WCI  11
WADENA         FAIR      18   9  68 E7        29.88F WCI   8
GLENWOOD       LGT SNOW  19  18  93 NE8       29.85F WCI   9
APPLETON       SNOW      16  12  86 NE8       29.81F VSB 1/2 WCI   5
BENSON         LGT SNOW  21  18  86 E7        29.85F VSB 3/4 WCI  13
MADISON        SNOW      12  10  92 NE10      29.79F VSB 1/2 WCI  -1
WILLMAR        FAIR      21  19  93 NE13      29.82F WCI   9
$$
MNZ033>034-036-042>043-049>051-058-059-242100-
   Central Minnesota

CITY           SKY/WX    TMP DP  RH WIND       PRES   REMARKS
ST CLOUD       CLOUDY    24  18  77 NE8       29.88F WCI  15
SAUK CENTRE    CLOUDY    19  15  82 NE7       29.87F WCI  10
PAYNESVILLE    LGT SNOW  22  20  93 NE6       29.86F VSB 1   WCI  14
AITKIN         FAIR      23  10  58 NE3       29.92F
PINE RIVER     FAIR      18  10  73 E6        29.95F WCI   9
BRAINERD       CLOUDY    24   8  50 E5        29.92F WCI  18
STAPLES        PTSUNNY   19   9  63 E5        29.89F WCI  13
LONG PRAIRIE   PTSUNNY   19  16  86 N7        29.86F WCI  10
LITTLE FALLS   CLOUDY    27  16  63 E5        29.89F WCI  21
LITCHFIELD     FAIR      25  21  86 NE10      29.84F FOG     WCI  15
BUFFALO        CLOUDY    25  18  77 NE7       29.89F WCI  17
MAPLE LAKE     CLOUDY    25  20  80 E6        29.89F WCI  18
HUTCHINSON     CLOUDY    25  21  84 NE10      29.84F FOG     WCI  15
$$
MNZ037-044-045-052-053-242100-
   East Central Minnesota

CITY           SKY/WX    TMP DP  RH WIND       PRES   REMARKS
PRINCETON      FAIR      27  19  74 NE7       29.88F WCI  19
CAMBRIDGE        N/A     27  18  69 CALM      29.89F
RUSH CITY      CLOUDY    28  19  69 NE5       29.92F WCI  23
MOOSE LAKE     PTSUNNY   30  12  47 NE6       29.92F WCI  24
HINCKLEY       FAIR      30  21  69 E6        29.93F WCI  24
CLOQUET        FAIR      27  12  54 E6        29.93F WCI  20
MCGREGOR       PTSUNNY   30   9  40 E7        29.93F WCI  23
$$
MNZ071>073-080-081-089-090-097-098-242100-
   Southwest Minnesota

CITY           SKY/WX    TMP DP  RH WIND       PRES   REMARKS
MONTEVIDEO     LGT SNOW  19  18  93 E9        29.79F WCI   9
GRANITE FALLS  LGT SNOW  21  19  93 NE10      29.82F WCI  10
CANBY          LGT SNOW  13   9  85 NE7       29.76F VSB 1   WCI   2
MARSHALL       SNOW      15  12  88 E10       29.75F VSB 1/2 WCI   2
REDWOOD FALLS  HVY SNOW  20  18  92 E10       29.79F VSB 1/4 WCI   9
OLIVIA         LGT SNOW  23  19  86 E10       29.79F VSB 3/4 WCI  12
PIPESTONE      LGT SNOW  18  16  93 SE13      29.70F VSB 1   WCI   4
WORTHINGTON    LGT SNOW  18  15  88 E13       29.73F FOG     WCI   5
JACKSON        SNOW      14  12  92 NE10      29.74F VSB 1/2 WCI   1
TRACY          SNOW      14  13  94 E9        29.74F VSB 1/2 WCI   2
SLAYTON        LGT SNOW  15  14  94 E10       29.73F WCI   2
$$
MNZ065>067-074>077-082>085-091>093-242100-
   South Central Minnesota

CITY           SKY/WX    TMP DP  RH WIND       PRES   REMARKS
MANKATO        LGT SNOW  25  22  88 NE10      29.80F VSB 3/4 WCI  15
NEW ULM        SNOW      19  18  93 NE8       29.80F VSB 1/4 WCI   9
ST JAMES       LGT SNOW  19  18  93 N5        29.80F VSB 1   WCI  13
FAIRMONT       MIX PCPN  20  17  88 N14       29.77F VSB 3/4 WCI   7
GLENCOE        LGT SNOW  26  22  85 E9        29.83F WCI  16
FARIBAULT      LGT SNOW  27  21  80 NE8G17    29.81F WCI  18
OWATONNA       LGT SNOW  27  23  86 E15       29.79F WCI  15
WASECA         LGT SNOW  28  25  86 E12       29.80F WCI  18
ALBERT LEA     CLOUDY    28  27  93 E13G18    29.76F FOG     WCI  18
$$
MNZ078>079-086>088-094>096-242100-
   Southeast Minnesota

CITY           SKY/WX    TMP DP  RH WIND       PRES   REMARKS
ROCHESTER      CLOUDY    29  24  82 E16       29.81F WCI  17
RED WING       PTSUNNY   28  19  69 E8        29.86F WCI  20
STANTON        CLOUDY    28  23  80 E14       29.82F HAZE    WCI  17
DODGE CENTER   FAIR      28  25  86 E14       29.80F FOG     WCI  17
WINONA         CLOUDY    34  27  75 SE12      29.86F WCI  25
AUSTIN         MIX PCPN  28  27  93 E15       29.78F WCI  17
PRESTON        LGT SNOW  30  25  81 E12       29.82F WCI  21
$$
ABBREVIATIONS USED IN REMARKS
   TC - TEMPERATURES IN CELSIUS
  WCI - WIND CHILL INDEX
   HX - HEAT INDEX
  VSB - VISIBILITY
$$




USA.gov is the U.S. government's official web portal to all federal, state and local government web resources and services.